Flag Weather past 2 weeks in Boca Raton, Florida, U.S.A.

Now
79 °F

Mostly cloudy.


Feels Like: 82 °F
Forecast: 74 / 83 °F
Wind: 9 mph from South

Location: Boca Raton Airport

Current Time: Nov 24, 2014 at 2:04:46 AM

Latest Report: Nov 23, 2014 at 10:47 PM


Visibility: 10 mi

Pressure: 29.98 "Hg

Humidity: 84%

Dew point: 73 °F

Location of Boca RatonLocation

Historic Weather in Boca Raton — Graph

°F

Boca Raton temperature yesterday

Maximum temperature yesterday: 82 °F (at 10:50 AM)
Minimum temperature yesterday: 77 °F (at 6:50 AM)
Average temperature yesterday: 80 °F

Past Weeks' High & Low Weather Summary

 TemperatureHumidityPressure
High84 °F (Nov 17, 3:53 PM)100% (Nov 10, 6:50 AM)30.25 "Hg (Nov 10, 6:50 AM)
Low55 °F (Nov 18, 9:50 PM)44% (Nov 11, 11:53 AM)29.84 "Hg (Nov 9, 1:53 PM)
Average73 °F76%30.05 "Hg
* Reported Nov 8 10:50 PM — Nov 23 10:47 PM, Boca Raton, Weather by CustomWeather, © 2014

Note: Actual official high and low records may vary slightly from our data, if they occured in-between our weather recording intervals... More about our weather records

Advertising

Boca Raton weather history for previous 24 hours

 ConditionsComfort  
Time TempWeatherWind HumidityBarometerVisibility
10:47 PM
Nov 23
79 °FMostly cloudy.9 mph84%29.98 "Hg10 mi
9:50 PM79 °FMostly cloudy.9 mph84%29.97 "Hg10 mi
8:50 PM79 °FPassing clouds.9 mph79%29.97 "Hg10 mi
7:50 PM79 °FOvercast.9 mph84%29.97 "Hg10 mi
6:50 PM79 °FPassing clouds.14 mph84%29.95 "Hg10 mi
5:50 PM79 °FPassing clouds.14 mph84%29.94 "Hg10 mi
4:50 PM79 °FScattered clouds.14 mph84%29.93 "Hg10 mi
3:50 PM81 °FScattered clouds.12 mph79%29.93 "Hg10 mi
2:53 PM81 °FBroken clouds.12 mph79%29.93 "Hg5 mi
12:53 PM82 °FBroken clouds.10 mph74%29.98 "Hg5 mi
11:53 AM81 °FBroken clouds.15 mph79%30.01 "Hg10 mi
10:50 AM82 °FBroken clouds.14 mph74%30.04 "Hg7 mi
9:50 AM81 °FBroken clouds.13 mph74%30.05 "Hg7 mi
8:50 AM79 °FBroken clouds.18 mph79%30.04 "Hg6 mi
7:50 AM79 °FScattered clouds.16 mph79%30.04 "Hg6 mi
6:50 AM77 °FBroken clouds.12 mph83%30.03 "Hg7 mi
Weather by CustomWeather, © 2014

See weather overviewHow to use our weather pages